Location: Newark
(13.6797°N, 8.5297°E)
Time: 15:25:36
(UTC+00:00)

Courier 1B Rocket - Pass Details

Date: 26 January 2020
Orbit: 920 x 1202 km, 28.2° (Epoch: 24 February)

Event Time Altitude Azimuth Distance (km) Brightness Sun altitude
Rises 13:35:43 0° 301° (WNW) 3,817 8.2 46.5°
Reaches altitude 10° 13:39:04 10° 315° (NW) 2,810 7.5 46.0°
Maximum altitude 13:44:30 25° 8° (N) 1,870 6.4 45.1°
Drops below altitude 10° 13:49:40 10° 62° (ENE) 2,667 7.0 44.2°
Sets 13:52:45 0° 75° (ENE) 3,582 7.6 43.7°
